www.pogodaiklimat.ru

Погода и климат >> Архив погоды >> Россия >> Ямало-Ненецкий АО >> Марресаля


АРХИВ ПОГОДЫ в Марресале

Время (UTC), дата Ветер
(напр.,м/с)
 
Видим.   Явления Облачность Т
(С)
Тd
(С)
f
(%)
Тe
(С)
Тes
(С)
Комфортность P
(гПа)
Po
(гПа)
Тmin
(С)
Tmax
(С)
R
(мм)
R24
(мм)
S
(см)
21 11.08 СЗ 3 4000 м дымка 8/4 600 м
[Sc Ac As]
+6.2 +4.7 90 +3 +3 1013.3 1010.1
00 12.08 СЗ 3 4000 м дымка 9/9 420 м
[Cb cap]
+5.6 +5.3 98 +2 +2 1013.9 1010.7
03 12.08 З 2 10 км 8/4 300 м
[Cb cap Ac trans]
+7.0 +5.2 88 +5 +6 1014.4 1011.3 +5.6 0.3
06 12.08 СЗ 3 20 км 8/4 600 м
[Sc Ac trans Ci fib]
+7.7 +4.6 81 +5 +7 1015.0 1011.8
09 12.08 СЗ 3 20 км 10/3 600 м
[Sc Ac As Ci fib]
+7.9 +3.8 75 +5 +7 1015.4 1012.2
12 12.08 СЗ 4 20 км 9/3 600 м
[Sc Ac As Ci fib]
+7.2 +4.6 84 +4 +4 1016.2 1013.1
15 12.08 СЗ 4 20 км 3/3 600 м
[Sc]
+7.0 +2.8 75 +4 +4 1016.9 1013.8 +8.3
18 12.08 СЗ 3 20 км 9/9 1050 м
[Sc]
+6.3 +2.2 75 +3 +3 1017.6 1014.4
21 12.08 СЗ 3 20 км 10/10 1140 м
[Sc]
+5.9 +1.9 75 +3 +3 1018.2 1015.1
00 13.08 З 3 20 км 10/10 660 м
[Sc]
+4.9 +2.8 86 +1 +1 1019.7 1016.6
03 13.08 ЮЗ 4 10 км 10/10 570 м
[Sc]
+4.4 +3.6 95 -0 -0 1020.3 1017.1 +4.4
06 13.08 ЮЗ 4 20 км 9/9 700 м
[Sc]
+6.1 +3.6 84 +2 +3 1020.6 1017.5 +4.2
09 13.08 Ю 6 20 км 8/4 600 м
[Sc Ac trans]
+7.8 +4.9 82 +4 +5 1020.3 1017.2
12 13.08 Ю 7 20 км 3/1 600 м
[Sc Ac trans]
+9.2 +7.0 86 +5 +6 1020.5 1017.4
15 13.08 Ю 6 20 км ясно +9.2 +7.6 90 +5 +5 1020.3 1017.2 +9.8
18 13.08 Ю 5 20 км 3/0
[Ac trans Ci fib]
+8.4 +7.5 94 +5 +5 1020.4 1017.3
21 13.08 ЮВ 7 4000 м дымка 1/0
[Ac trans]
+7.7 +7.0 95 +3 +3 1020.2 1017.1
00 14.08 ЮВ 4 4000 м дымка 3/0
[Ac trans]
+6.9 +6.5 97 +3 +3 1020.1 1016.9
03 14.08 ЮВ 8-11
{11}
20 км 8/0
[Ac trans Ci fib]
+10.6 +7.7 82 +7 +7 1019.1 1016.0 +6.3
06 14.08 ЮВ 11-14
{15}
20 км 10/3 600 м
[Sc Ac As Cc]
+11.0 +8.0 82 +7 +7 1017.5 1014.4
09 14.08 ЮВ 9-12
{16}
10 км слаб. ливневой дождь 10/6 300 м
[Cb cap Ac As]
+10.4 +9.3 93 +6 +6 1016.2 1013.1
12 14.08 ЮВ 10-14
{14}
2000 м ливневой дождь 10/10 360 м
[Cb cap]
+10.0 +10.0 100 +5 +5 1014.3 1011.2
15 14.08 ЮВ 7-10
{14}
2000 м ливневой дождь 10/10 270 м
[Cb cap]
+10.1 +10.1 100 +6 +6 1012.8 1009.7 +11.8 5
18 14.08 ЮВ 4
{10}
4000 м дымка {ливн. осадки} 10/10 750 м
[Sc]
+9.6 +9.6 100 +7 +7 1012.0 1008.9
21 14.08 Ю 4 4000 м дымка 10/9 500 м
[Sc Ac As]
+9.8 +9.8 100 +7 +7 1011.2 1008.1
00 15.08 Ю 3 4000 м дымка 10/10 300 м
[Cb cap]
+10.0 +10.0 100 +8 +8 1010.7 1007.6
03 15.08 В 1 2000 м ливневой дождь 10/10 270 м
[Cb cap]
+10.3 +10.3 100 +10 +10 1009.8 1006.7 +9.4 2
06 15.08 ЮЗ 1 500 м туман {ливн. осадки} ?/? +10.0 +10.0 100 +9 +9 1009.9 1006.8
09 15.08 ЮЗ 2 500 м туман ?/? +10.2 +10.2 100 +9 +9 1010.5 1007.4
12 15.08 Ю 4 500 м туман ?/? +11.7 +11.7 100 +9 +9 1011.2 1008.1
15 15.08 Ю 3 4000 м дымка {туман} 9/4 600 м
[Sc Ac As]
+10.8 +10.8 100 +9 +9 1011.3 1008.2 +12.3 0.9
18 15.08 Ю 4 4000 м дымка {туман} 9/3 600 м
[Sc Ac trans]
+11.0 +11.0 100 +8 +8 1012.0 1008.9
21 15.08 Ю 3 4000 м дымка 6/3 600 м
[Sc Ac trans]
+9.9 +9.9 100 +7 +7 1011.8 1008.7
00 16.08 Ю 4 4000 м дымка 10/10 800 м
[Sc]
+10.3 +10.3 100 +7 +7 1012.1 1009.0
03 16.08 ЮВ 4 10 км слаб. ливневой дождь 10/10 600 м
[Cb cap]
+11.5 +11.5 100 +9 +9 1011.5 1008.5 +9.7 0.0
06 16.08 ЮВ 6 20 км {ливн. осадки} 10/3 600 м
[Sc Ac As]
+13.6 +13.2 97 +11 +12 1010.2 1007.2
09 16.08 ЮВ 7
{10}
20 км 9/3 600 м
[Cu med, cong Ac trans]
+14.4 +11.8 84 +12 +13 1008.7 1005.7
12 16.08 ЮВ 8-10
{10}
20 км 10/1 600 м
[Sc Ac As]
+15.5 +13.0 85 +14 +14 1006.6 1003.6
15 16.08 ЮВ 8
{11}
4000 м дымка 9/3 300 м
[Cb cap Ac trans]
+13.7 +13.1 96 +11 +11 1004.5 1001.5 +15.8 0.0
18 16.08 ЮВ 8-10
{11}
2000 м ливневой дождь 10/10 210 м
[Cb cap]
+13.3 +13.3 100 +10 +10 1003.0 1000.0
21 16.08 Ю 6
{10}
4000 м дымка {ливн. осадки} 3/3 600 м
[Sc]
+11.1 +11.1 100 +8 +8 1002.9 999.8
00 17.08 Ю 6 10 км {ливн. осадки} 8/8 1470 м
[Cb cap]
+11.1 +10.4 95 +8 +8 1002.7 999.6
03 17.08 ЮВ 5 4000 м слаб. ливневой дождь 10/10 420 м
[Cb cap]
+11.6 +11.6 100 +9 +9 1002.4 999.4 +9.5 2
06 17.08 Ю 5 4000 м в посл. час ливневой дождь 10/10 330 м
[Cb cap]
+11.2 +11.2 100 +8 +8 1002.7 999.7
09 17.08 З 3 1000 м дымка 10/10 180 м
[St]
+10.4 +10.4 100 +8 +8 1004.6 1001.5
12 17.08 З 6 2000 м в посл. час туман 10/10 210 м
[St]
+9.0 +9.0 100 +5 +5 1006.8 1003.7
15 17.08 З 8-10
{11}
1000 м дымка 10/10 270 м
[St]
+8.5 +8.5 100 +4 +4 1008.6 1005.5 +12.0 0.4
18 17.08 СЗ 6
{11}
1000 м слаб. ливневой дождь 10/10 210 м
[Cb cap]
+8.8 +8.8 100 +5 +5 1010.3 1007.2
21 17.08 СЗ 9-13
{14}
2000 м дымка {ливн. осадки} 10/10 240 м
[St]
+8.6 +8.6 100 +4 +4 1013.2 1010.1
00 18.08 СЗ 7-10
{13}
2000 м дымка {ливн. осадки} 10/10 270 м
[St]
+8.5 +8.5 100 +4 +4 1016.0 1012.9
03 18.08 СЗ 7-10
{10}
2000 м 10/10 210 м
[St]
+8.2 +8.2 100 +4 +4 1018.2 1015.1 +7.9 0.0
06 18.08 СЗ 6
{10}
4000 м дымка 9/9 360 м
[Sc]
+8.7 +8.7 100 +5 +5 1020.0 1016.8 +7.9
09 18.08 З 5 4000 м дымка 10/10 420 м
[Sc]
+8.3 +7.6 95 +4 +4 1021.6 1018.5
12 18.08 З 5 4000 м дымка 10/10 330 м
[Sc]
+7.9 +7.9 100 +4 +4 1023.2 1020.1
15 18.08 З 7 2000 м дымка 10/10 210 м
[St]
+6.9 +6.9 100 +2 +2 1024.3 1021.1 +9.1
18 18.08 З 5 4000 м дымка 10/10 480 м
[Sc]
+8.3 +8.3 100 +4 +4 1024.8 1021.6

 

Местоположение метеостанции Марресаля (Ямало-Ненецкий АО, Россия): широта 69.71 долгота 66.80 высота над уровнем моря 26 м.

В архиве по умолчанию представлена погода в Марресале за последнюю неделю. Архивные данные за месяц целиком и за предыдущие месяцы, начиная с января 2011 года, Вы можете получить, выбрав интересующий диапазон дат из раскрывающегося списка и нажав кнопку "Ввод!".


*Определитесь, кто Вы:
робот инопланетянин человек

Внимание! Время в таблицах - всемирное. Для получения местного времени необходимо прибавить поправку, которая равна 5 ч.

Смотрите также архив погоды в соседних городах и на ближайших метеорологических станциях:

Погода в Усть-Каре (Ненецкий АО, Россия) (89 км)
Погода в Амдерме (Ненецкий АО, Россия) (197 км)
Погода в Сеяхе (Ямало-Ненецкий АО, Россия) (224 км)
Погода на Мысе Белый Нос (Ненецкий АО, Россия) (255 км)
Погода в Тамбее (Ямало-Ненецкий АО, Россия) (270 км)
Погода в Воркуте (Коми, Россия) (273 км)
Погода в Имени Федорова (Ненецкий АО, Россия) (304 км)
Погода в Елецкой (Коми, Россия) (316 км)
Погода в Белоярске (Ямало-Ненецкий АО, Россия) (321 км)
Погода в Харпе (Ямало-Ненецкий АО, Россия) (326 км)

Пояснения к столбцам:

Ветер - указаны скорость ветра в м/с - средняя за 10 мин, порывы в срок и между сроками (в фигурных скобках) и направление, откуда дует ветер: С - северный, СВ - северо-восточный, В - восточный, ЮВ - юго-восточный, Ю - южный, ЮЗ - юго-западный, З - западный, СЗ - северо-западный.
Видимость - горизонтальная дальность видимости в метрах или километрах. При видимости от 1 до 10 км при отсутствии осадков обычно наблюдается дымка, при ухудшении видимости до 1 км и менее - туман. В сухую погоду видимость может ухудшаться дымом, пылью или мглою.
Явления - указаны атмосферные явления, наблюдавшиеся в срок или в последний час перед сроком; фигурными скобками обозначены явления, наблюдавшиеся между сроками (за 1-3 часа до срока); квадратными скобками обозначены град или гололедные отложения с указанием их диаметра в мм.
Облачность - указаны через наклонную черту общая и нижняя облачность в баллах и высота нижней границы облаков в метрах; квадратными скобками обозначены формы облаков: Ci - перистые, Cs - перисто-слоистые, Cc - перисто-кучевые, Ac - высококучевые, As - высокослоистые, Sc - слоисто-кучевые, Ns - слоисто-дождевые, Cu - кучевые, Cb - кучево-дождевые. Подробнее классификацию облаков см. в Атласе облаков (PDF).
T - Температура воздуха - температура, измеренная на высоте 2 м над землей.
Td - Температура точки росы - температура, при понижении до которой содержащийся в воздухе водяной пар достигнет насыщения.
f - Относительная влажность воздуха - влажноcть воздуха, измеренная на высоте 2 м над землей.
Te - Эффективная температура - температура, которую ощущает одетый по сезону человек в тени. Характеристика душности погоды. При расчете учитывается влияние влажности воздуха и скорости ветра на теплоощущения человека.
Tes - Эффективная температура на солнце - температура, которую ощущает человек, с поправкой на солнечный нагрев. Характеристика знойности погоды. Зависит от высоты солнца над горизонтом, облачности и скорости ветра. Ночью, в пасмурную погоду, а также при ветре 12 м/с и более поправка равна нулю.
P - Атмосферное давление - приведенное к уровню моря атмосферное давление.
Po - Атмосферное давление - измеренное на уровне метеостанции атмосферное давление.
Tmin - Минимальная температура - минимум температуры воздуха на высоте 2 м над землей.
Tmax - Максимальная температура - максимум температуры воздуха на высоте 2 м над землей.
R - Количество осадков - Количество выпавших осадков за период времени, мм. При наведении курсора мыши на число - период времени, за который выпало указанное количество осадков.
R24 - Количество осадков - Количество выпавших осадков за 24 часа, мм.
S - Снежный покров - Высота снежного покрова, см. При наведении курсора мыши на число - состояние снежного покрова и степень покрытия местности в баллах.